Location: Famechon
(49.7599°N, 2.0615°E)
Time: 10:39:24
(UTC+00:00)

BlueWalker 3 - Pass Details

Date: 03 February 2023
Orbit: 497 x 515 km, 53.2° (Epoch: 23 March)

Event Time Altitude Azimuth Distance (km) Brightness Sun altitude
Rises 18:29:46 0° 279° (W) 2,601 7.1 -16.3°
Reaches altitude 10° 18:32:00 10° 285° (WNW) 1,720 5.7 -16.7°
Maximum altitude 18:35:48 49° 1° (N) 660 2.4 -17.3°
Enters shadow 18:36:57 36° 51° (NE) 818 2.5 -17.5°
